Des Moines, IA

6:33 PM CST on January 20, 2017 (GMT -0600)
Des Moines International

Weather History for KDSM - April, 2013

Change the Weather History Date:

Thursday, April 11, 2013

  Actual Average Record
Temperature  
Mean Temperature 40 °F 50 °F  
Max Temperature 42 °F 61 °F 87 °F (1930)
Min Temperature 37 °F 39 °F 20 °F (1940)
Degree Days  
Heating Degree Days 25 15  
Month to date heating degree days 194 189  
Since 1 July heating degree days 5523 5816  
Cooling Degree Days 0 0  
Month to date cooling degree days 0 0  
Year to date cooling degree days 0 1  
Moisture  
Dew Point 36 °F    
Average Humidity 86    
Maximum Humidity 93    
Minimum Humidity 79    
Precipitation  
Precipitation 0.19 in 0.11 in 2.00 in (2005)
Month to date precipitation 2.20 1.15  
Year to date precipitation 6.72 5.73  
Snow  
Snow T in 0.10 in 4.10 in (2007)
Month to date snowfall T 1.0  
Since 1 July snowfall 48.3 34.5  
Snow Depth 0.00 in    
Sea Level Pressure  
Sea Level Pressure 29.64 in    
Wind  
Wind Speed 11 mph (WSW)    
Max Wind Speed 23 mph    
Max Gust Speed 29 mph    
Visibility 6 miles    
Events Rain , Snow    
T = Trace of Precipitation, MM = Missing Value Source: NWS Daily Summary

Daily Weather History Graph

Daily Weather History Graph

Search for Another Location

Airport or City:

Trip Planner

Search our weather history database for the weather conditions in past years. The results will help you decide how hot, cold, wet, or windy it might be!

Date:

Astronomy

Apr. 11, 2013 Rise Set
Actual Time 6:40 AM CDT 7:51 PM CDT
Civil Twilight 6:12 AM CDT 8:19 PM CDT
Nautical Twilight 5:38 AM CDT 8:53 PM CDT
Astronomical Twilight 5:02 AM CDT 9:29 PM CDT
Moon 7:11 AM CDT (4/11) 9:27 PM CDT (4/11)
Length of Visible Light 14h 07m
Length of Day
13h 10m
New Moon, 2% of the Moon is Illuminated
Apr 11
New Moon
Apr 18
First Quarter
Apr 25
Full
May 2
Last Quarter
May 9
New

Hourly Weather History & Observations

Time (CDT) Temp. Windchill Dew Point Humidity Pressure Visibility Wind Dir Wind Speed Gust Speed Precip Events Conditions
12:16 AM 41.0 °F 38.0 °F 37.9 °F 89% 29.73 in 5.0 mi East 4.6 mph - 0.01 in Rain Light Rain
12:50 AM 39.2 °F 35.9 °F 37.4 °F 93% 29.72 in 8.0 mi East 4.6 mph - 0.05 in Rain Light Rain
12:54 AM 39.9 °F 35.1 °F 37.9 °F 93% 29.73 in 7.0 mi East 6.9 mph - 0.05 in Rain Light Rain
1:25 AM 39.9 °F 35.1 °F 37.9 °F 93% 29.70 in 7.0 mi East 6.9 mph - 0.00 in Rain Light Rain
1:54 AM 39.9 °F 37.8 °F 37.9 °F 93% 29.71 in 3.0 mi Variable 3.5 mph - 0.02 in Rain Light Rain
2:19 AM 39.9 °F 37.8 °F 37.0 °F 89% 29.69 in 3.0 mi North 3.5 mph - 0.05 in Rain Light Rain
2:54 AM 39.9 °F 37.8 °F 37.9 °F 93% 29.70 in 4.0 mi NNW 3.5 mph - 0.07 in Rain Light Rain
3:54 AM 39.9 °F - 37.0 °F 89% 29.69 in 6.0 mi Calm Calm - 0.04 in Rain Light Rain
4:18 AM 39.9 °F 37.8 °F 37.9 °F 93% 29.65 in 10.0 mi North 3.5 mph - 0.00 in   Light Drizzle
4:29 AM 39.9 °F 37.8 °F 37.0 °F 89% 29.64 in 10.0 mi North 3.5 mph - 0.00 in   Overcast
4:54 AM 39.9 °F 37.8 °F 37.9 °F 93% 29.64 in 8.0 mi North 3.5 mph - 0.00 in   Light Drizzle
5:18 AM 39.9 °F 34.5 °F 37.0 °F 89% 29.62 in 3.0 mi NNE 8.1 mph - 0.00 in   Light Drizzle
5:50 AM 39.2 °F 35.0 °F 37.4 °F 93% 29.64 in 2.0 mi ENE 5.8 mph - 0.00 in   Light Drizzle
5:54 AM 39.9 °F 36.7 °F 37.0 °F 89% 29.66 in 2.0 mi East 4.6 mph - 0.00 in   Light Drizzle
6:06 AM 39.0 °F 34.8 °F 37.9 °F 96% 29.64 in 1.8 mi East 5.8 mph - 0.00 in   Light Drizzle
6:16 AM 39.9 °F 35.8 °F 37.9 °F 93% 29.64 in 2.5 mi ESE 5.8 mph - 0.00 in   Overcast
6:54 AM 39.0 °F - 37.9 °F 96% 29.64 in 2.5 mi Calm Calm - 0.00 in   Overcast
7:37 AM 39.9 °F 37.8 °F 37.9 °F 93% 29.63 in 1.5 mi SE 3.5 mph - 0.00 in   Light Drizzle
7:45 AM 39.9 °F 35.8 °F 37.9 °F 93% 29.63 in 0.8 mi SE 5.8 mph - 0.00 in   Light Drizzle
7:54 AM 39.9 °F 35.8 °F 37.9 °F 93% 29.65 in 1.0 mi SE 5.8 mph - 0.00 in   Light Drizzle
8:46 AM 39.9 °F 34.5 °F 39.0 °F 97% 29.64 in 1.0 mi SSW 8.1 mph - 0.02 in   Light Drizzle
8:54 AM 41.0 °F 35.2 °F 39.0 °F 93% 29.65 in 1.0 mi SW 9.2 mph - 0.02 in   Light Drizzle
8:57 AM 41.0 °F 36.4 °F 37.9 °F 89% 29.63 in 1.5 mi SW 6.9 mph - 0.00 in   Light Drizzle
9:12 AM 41.0 °F 34.7 °F 37.9 °F 89% 29.62 in 3.0 mi SW 10.4 mph - 0.00 in   Light Drizzle
9:20 AM 42.1 °F 36.1 °F 37.9 °F 85% 29.62 in 7.0 mi SW 10.4 mph - 0.00 in   Light Drizzle
9:54 AM 41.0 °F 33.1 °F 37.9 °F 89% 29.64 in 10.0 mi WSW 15.0 mph - 0.00 in   Light Drizzle
10:54 AM 42.1 °F 35.2 °F 37.0 °F 82% 29.62 in 10.0 mi West 12.7 mph - 0.00 in Rain Light Rain
11:09 AM 42.1 °F 35.7 °F 37.0 °F 82% 29.60 in 10.0 mi West 11.5 mph - 0.00 in Rain Light Rain
11:54 AM 41.0 °F 33.1 °F 35.6 °F 81% 29.62 in 10.0 mi WSW 15.0 mph - N/A Rain Light Rain
12:21 PM 39.9 °F 31.8 °F 36.0 °F 86% 29.62 in 6.0 mi WSW 15.0 mph - 0.00 in Rain Light Rain
12:54 PM 41.0 °F 32.8 °F 37.0 °F 86% 29.63 in 10.0 mi WSW 16.1 mph - 0.01 in Rain Light Rain
1:03 PM 39.9 °F 31.4 °F 36.0 °F 86% 29.62 in 6.0 mi WSW 16.1 mph - 0.00 in Rain Light Rain
1:39 PM 39.9 °F 31.1 °F 36.0 °F 86% 29.62 in 7.0 mi WSW 17.3 mph - 0.01 in Rain Light Rain
1:54 PM 39.0 °F 29.9 °F 36.0 °F 89% 29.64 in 3.0 mi WSW 17.3 mph - 0.01 in Rain Light Rain
2:19 PM 37.9 °F 28.5 °F 35.1 °F 89% 29.62 in 2.0 mi WSW 17.3 mph - 0.00 in Rain Light Rain
2:41 PM 39.0 °F 28.8 °F 34.0 °F 82% 29.63 in 5.0 mi WSW 21.9 mph - 0.00 in   Light Drizzle
2:54 PM 37.9 °F 27.9 °F 34.0 °F 86% 29.65 in 4.0 mi WSW 19.6 mph - 0.00 in   Light Drizzle
3:54 PM 39.0 °F 32.8 °F 33.1 °F 79% 29.63 in 10.0 mi WSW 9.2 mph - 0.00 in   Overcast
4:47 PM 37.9 °F 30.0 °F 33.1 °F 83% 29.63 in 2.5 mi WSW 12.7 mph - 0.00 in Rain , Snow Light Rain
4:54 PM 37.9 °F 29.2 °F 33.1 °F 83% 29.64 in 2.5 mi WSW 15.0 mph 19.6 mph 0.00 in Rain , Snow Light Rain
5:25 PM 37.0 °F 28.5 °F 33.1 °F 86% 29.62 in 3.0 mi WSW 13.8 mph - 0.00 in   Overcast
5:38 PM 37.9 °F 30.0 °F 33.1 °F 83% 29.61 in 3.0 mi WSW 12.7 mph - 0.00 in Rain , Snow Light Rain
5:54 PM 37.9 °F 29.2 °F 33.1 °F 83% 29.62 in 10.0 mi WSW 15.0 mph - 0.00 in   Overcast
6:03 PM 37.9 °F 28.9 °F 32.0 °F 79% 29.61 in 10.0 mi WSW 16.1 mph - N/A   Overcast
6:54 PM 37.9 °F 29.2 °F 32.0 °F 79% 29.62 in 10.0 mi SW 15.0 mph - N/A   Overcast
7:54 PM 37.0 °F 29.3 °F 32.0 °F 82% 29.64 in 10.0 mi SW 11.5 mph - N/A   Overcast
8:35 PM 37.0 °F 28.9 °F 32.0 °F 82% 29.62 in 10.0 mi SW 12.7 mph - N/A   Overcast
8:54 PM 37.0 °F 28.9 °F 32.0 °F 82% 29.64 in 10.0 mi SW 12.7 mph - N/A   Overcast
9:32 PM 37.0 °F 30.4 °F 33.1 °F 86% 29.62 in 7.0 mi SW 9.2 mph - 0.00 in   Light Drizzle
9:54 PM 37.0 °F 31.0 °F 33.1 °F 86% 29.64 in 5.0 mi SW 8.1 mph - 0.00 in Rain Light Rain
10:40 PM 37.0 °F 29.3 °F 34.0 °F 89% 29.61 in 3.0 mi SW 11.5 mph - 0.02 in Rain , Snow Light Rain
10:42 PM 37.0 °F 28.5 °F 34.0 °F 89% 29.61 in 2.5 mi SW 13.8 mph - 0.02 in Rain , Snow Light Rain
10:54 PM 37.0 °F 28.9 °F 34.0 °F 89% 29.63 in 2.5 mi WSW 12.7 mph - 0.02 in Rain , Snow Light Rain
11:49 PM 37.4 °F 29.3 °F 33.8 °F 87% 29.62 in 10.0 mi West 12.7 mph - 0.00 in   Light Drizzle
11:54 PM 37.0 °F 28.9 °F 34.0 °F 89% 29.64 in 10.0 mi West 12.7 mph - 0.00 in   Light Drizzle